Location: Karcze
(52.0945°N, 22.4786°E)
Time: 01:56:36
(UTC+00:00)

A-11 Canister half - Pass Details

Date: 02 August 2021
Orbit: 1514 x 1685 km, 47.2° (Epoch: 16 September)

Event Time Altitude Azimuth Distance (km) Brightness Sun altitude
Rises 22:42:55 0° 286° (WNW) 4,927 11.8 -20.4°
Reaches altitude 10° 22:47:33 10° 268° (W) 3,948 11.1 -20.4°
Maximum altitude 22:53:19 17° 233° (SW) 3,410 10.4 -20.3°
Enters shadow 22:54:30 17° 225° (SW) 3,433 10.4 -20.3°
Drops below altitude 10° 22:59:05 10° 197° (SSW) 3,935 - -20.2°
Sets 23:03:45 0° 179° (S) 4,905 - -20.1°
